SR8NGO-1 Weather Reports


time (UTC)temp
C
wind
direction
speed
KPH
gust
KPH
rain 1hr
cm
rain 24hr
cm
rain mn
cm
humidity
%
barometer
mb
20260505064847 23 179 16.1 80.5 13.79 3.17 0.00 44 1001.6
20260505064046 23 190 12.9 80.5 13.79 3.07 0.00 44 1001.6
20260505063647 22 177 11.3 80.5 13.79 3.05 0.00 44 1001.6
20260505063247 23 190 14.5 80.5 13.79 3.02 0.00 43 1001.6
20260505062847 22 183 12.9 80.5 13.79 3.00 0.00 43 1001.6
20260505062447 22 213 12.9 80.5 13.79 3.00 0.00 43 1001.6
20260505062047 22 162 11.3 80.5 13.79 3.00 0.00 43 1001.6
20260505061246 21 211 17.7 80.5 13.79 2.87 0.00 43 1001.6
20260505060848 20 179 20.9 80.5 13.79 2.87 0.00 43 1001.6
20260505060446 21 217 14.5 80.5 13.79 2.97 0.00 43 1001.6
20260505060049 21 151 24.1 80.5 13.79 3.02 0.00 44 1001.6
20260505055646 21 200 12.9 80.5 13.79 3.12 0.00 45 1001.7
20260505055247 21 183 16.1 80.5 13.79 3.05 0.00 45 1001.7
20260505054847 20 166 20.9 80.5 13.79 2.92 0.00 45 1001.7
20260505054447 21 177 14.5 80.5 13.79 2.92 0.00 46 1001.7
20260505054047 18 177 19.3 80.5 13.79 2.95 0.00 46 1001.7
20260505053647 18 194 22.5 80.5 13.79 3.05 0.00 46 1001.7
20260505053247 18 173 14.5 80.5 13.79 2.87 0.00 46 1001.7
20260505052846 18 207 17.7 80.5 13.79 2.82 0.00 47 1001.7
20260505052446 18 156 12.9 80.5 13.79 3.02 0.00 47 1001.7
20260505051646 18 173 20.9 80.5 13.79 3.02 0.00 48 1001.7
20260505051246 18 179 9.7 80.5 13.79 2.87 0.00 48 1001.6
20260505050846 17 155 19.3 80.5 13.69 2.90 0.00 48 1001.6
20260505050446 17 196 20.9 80.5 13.69 2.95 0.00 48 1001.6
20260505041646 13 183 12.9 80.5 13.31 2.82 0.00 62 1001.4
20260505041246 12 177 11.3 80.5 13.31 2.74 0.00 63 1001.5
20260505040846 12 177 11.3 80.5 13.31 2.64 0.00 64 1001.5
20260505040446 12 189 8.0 80.5 13.21 2.57 0.00 65 1001.4
20260505040046 12 201 6.4 80.5 13.11 2.46 0.00 65 1001.4
20260505035646 12 190 9.7 80.5 13.00 2.44 0.00 64 1001.4
20260505035246 11 201 11.3 80.5 13.00 2.39 0.00 64 1001.3
20260505034846 11 189 9.7 80.5 12.90 2.26 0.00 64 1001.3
20260505034446 11 173 12.9 80.5 12.80 2.16 0.00 64 1001.3
20260505034046 11 194 11.3 80.5 12.80 2.18 0.00 64 1001.3
20260505033646 11 179 12.9 80.5 12.80 2.21 0.00 64 1001.2
20260505033246 11 196 12.9 80.5 12.70 2.18 0.00 64 1001.2
20260505032846 11 179 12.9 80.5 12.60 2.08 0.00 64 1001.2
20260505032446 11 183 12.9 80.5 12.60 2.08 0.00 64 1001.2
20260505032046 10 200 12.9 80.5 12.50 2.06 0.00 64 1001.2
20260505031646 10 184 11.3 80.5 12.50 2.03 0.00 64 1001.3
20260505031246 10 194 12.9 80.5 12.50 2.03 0.00 64 1001.2
20260505030846 11 177 12.9 80.5 12.50 2.03 0.00 64 1001.3
20260505030446 11 206 12.9 80.5 12.40 2.03 0.00 63 1001.3
20260505030046 11 184 16.1 80.5 12.40 2.03 0.00 63 1001.3
20260505025646 10 183 12.9 80.5 12.40 2.01 0.00 63 1001.3
20260505025246 10 189 12.9 80.5 12.40 2.01 0.00 63 1001.2
20260505024846 11 194 14.5 80.5 12.40 2.03 0.00 63 1001.2
20260505024446 11 184 17.7 80.5 12.40 2.01 0.00 63 1001.2
20260505024046 10 194 16.1 80.5 12.40 2.01 0.00 63 1001.2
20260505023646 11 196 14.5 80.5 12.40 2.03 0.00 63 1001.2
20260505023246 11 196 14.5 80.5 12.40 2.03 0.00 63 1001.2
20260505022846 11 206 14.5 80.5 12.40 2.01 0.00 62 1001.2
20260505022446 10 196 11.3 80.5 12.40 1.98 0.00 62 1001.2
20260505022046 10 194 11.3 80.5 12.40 1.96 0.00 62 1001.3
20260505021646 10 196 11.3 80.5 12.40 1.96 0.00 62 1001.2
20260505021246 10 200 11.3 80.5 12.40 1.98 0.00 62 1001.3
20260505020846 10 196 11.3 80.5 12.40 1.98 0.00 62 1001.2
20260505020446 10 189 11.3 80.5 12.40 1.98 0.00 62 1001.2
20260505020046 10 190 11.3 80.5 12.40 1.98 0.00 61 1001.3
20260505015646 11 189 14.5 80.5 12.40 2.01 0.00 61 1001.3
20260505015246 11 183 12.9 80.5 12.50 2.03 0.00 61 1001.3
20260505014846 11 179 14.5 80.5 12.50 2.03 0.00 61 1001.4
20260505014446 11 189 14.5 80.5 12.50 2.03 0.00 61 1001.4
20260505014046 11 189 12.9 80.5 12.50 2.03 0.00 61 1001.4
20260505013646 11 177 16.1 80.5 12.50 2.06 0.00 61 1001.4
20260505013246 11 189 14.5 80.5 12.50 2.06 0.00 60 1001.4
20260505012846 11 183 11.3 80.5 12.50 2.06 0.00 60 1001.4
20260505012446 11 177 12.9 80.5 12.50 2.03 0.00 60 1001.4
20260505012046 11 173 12.9 80.5 12.50 2.03 0.00 60 1001.4
20260505011646 12 173 14.5 80.5 12.50 2.03 0.00 60 1001.4
20260505011246 12 161 12.9 80.5 12.50 2.06 0.00 60 1001.4
20260505010846 12 173 11.3 80.5 12.50 2.06 0.00 60 1001.4
20260505010446 12 173 14.5 80.5 12.50 2.06 0.00 60 1001.4
20260505010046 12 155 9.7 80.5 12.50 2.06 0.00 59 1001.5
20260505005246 12 166 9.7 80.5 12.50 2.06 0.00 59 1001.5
20260505004847 12 166 11.3 80.5 12.50 2.06 0.00 59 1001.5
20260505004046 12 173 14.5 80.5 12.50 2.11 0.00 59 1001.6
20260505003646 12 183 14.5 80.5 12.50 2.11 0.00 59 1001.5
20260505003246 12 168 12.9 80.5 12.50 2.08 0.00 59 1001.5
20260505002846 12 172 12.9 80.5 12.50 2.11 0.00 59 1001.5
20260505002446 12 179 12.9 80.5 12.50 2.11 0.00 58 1001.5
20260505002046 12 172 12.9 80.5 12.50 2.13 0.00 58 1001.5
20260505001646 12 161 14.5 80.5 12.50 2.13 0.00 58 1001.5
20260505001246 12 173 16.1 80.5 12.50 2.13 0.00 58 1001.5
20260505000846 12 168 12.9 80.5 12.50 2.13 0.00 58 1001.6
20260505000446 12 168 11.3 80.5 12.50 2.13 0.00 58 1001.6
20260505000046 12 179 14.5 80.5 12.50 2.16 0.00 58 1001.6
20260504235646 12 177 12.9 80.5 12.50 2.13 0.00 58 1001.6
20260504235246 12 173 14.5 80.5 12.50 2.16 0.00 58 1001.6
20260504234846 12 173 11.3 80.5 12.50 2.16 0.00 58 1001.7
20260504234447 12 166 12.9 80.5 12.50 2.16 0.00 58 1001.7
20260504233646 12 189 14.5 80.5 12.50 2.18 0.00 58 1001.8
20260504233246 12 168 12.9 80.5 12.50 2.18 0.00 58 1001.8
20260504232846 13 184 12.9 80.5 12.50 2.18 0.00 58 1001.8
20260504232446 12 168 12.9 80.5 12.50 2.16 0.00 58 1001.9
20260504232046 12 173 14.5 80.5 12.50 2.18 0.00 57 1001.9
20260504231646 12 168 11.3 80.5 12.50 2.16 0.00 57 1002.0
20260504231246 12 183 9.7 80.5 12.50 2.13 0.00 57 1002.0
20260504230846 12 149 11.3 80.5 12.50 2.16 0.00 57 1002.0
20260504230446 12 173 11.3 80.5 12.50 2.16 0.00 57 1002.0
20260504230046 13 179 11.3 80.5 12.50 2.16 0.00 57 1002.1
20260504225246 12 168 9.7 80.5 12.50 2.13 0.00 57 1002.1
20260504224846 13 173 8.0 80.5 12.50 2.13 0.00 56 1002.1
20260504224446 13 183 12.9 80.5 12.50 2.16 0.00 56 1002.2
20260504224046 12 173 11.3 80.5 12.50 2.13 0.00 56 1002.2
20260504223646 12 166 11.3 80.5 12.50 2.13 0.00 56 1002.2
20260504223246 13 179 12.9 80.5 12.50 2.18 0.00 56 1002.2
20260504222846 13 179 12.9 80.5 12.50 2.16 0.00 56 1002.2
20260504222446 13 177 12.9 80.5 12.50 2.16 0.00 55 1002.2
20260504222046 12 179 14.5 80.5 12.50 2.16 0.00 55 1002.3
20260504221646 12 184 14.5 80.5 12.50 2.16 0.00 55 1002.3
20260504221246 12 184 11.3 80.5 12.50 2.16 0.00 55 1002.3
20260504220846 12 183 11.3 80.5 12.50 2.18 0.00 55 1002.3
20260504220446 13 184 11.3 80.5 12.50 2.18 0.00 54 1002.4
20260504220046 13 183 11.3 80.5 12.50 2.21 0.00 54 1002.4
20260504215646 13 173 14.5 80.5 12.50 2.21 0.00 54 1002.4
20260504215246 13 179 12.9 80.5 12.50 2.24 0.00 54 1002.4
20260504214846 13 179 11.3 80.5 12.50 2.26 0.00 54 1002.4
20260504214447 13 183 14.5 80.5 12.50 2.26 0.00 54 1002.4
20260504214046 13 179 14.5 80.5 12.50 2.26 0.00 53 1002.4
20260504213646 13 179 12.9 80.5 12.60 2.26 0.00 53 1002.4
20260504213246 13 183 12.9 80.5 12.60 2.29 0.00 53 1002.4
20260504212846 13 183 12.9 80.5 12.60 2.29 0.00 53 1002.4
20260504212046 15 183 11.3 80.5 12.60 2.31 0.00 53 1002.4
20260504211646 15 183 11.3 80.5 12.60 2.31 0.00 53 1002.4
20260504211246 15 184 11.3 80.5 12.60 2.31 0.00 53 1002.4
20260504210846 16 177 11.3 80.5 12.60 2.31 0.00 52 1002.4
20260504210446 16 177 11.3 80.5 12.60 2.34 0.00 52 1002.4
20260504210046 16 177 12.9 80.5 12.60 2.34 0.00 52 1002.4
20260504205646 16 177 11.3 80.5 12.60 2.36 0.00 52 1002.4
20260504205246 15 184 11.3 80.5 12.60 2.39 0.00 52 1002.4
20260504204846 16 183 12.9 80.5 12.60 2.41 0.00 52 1002.4
20260504204446 16 173 9.7 80.5 12.60 2.41 0.00 52 1002.4
20260504204046 16 179 12.9 80.5 12.60 2.44 0.00 52 1002.4
20260504203646 16 179 12.9 80.5 12.60 2.44 0.00 52 1002.4
20260504203246 16 183 11.3 80.5 12.60 2.44 0.00 52 1002.4
20260504202846 16 183 14.5 80.5 12.60 2.44 0.00 52 1002.4
20260504202446 16 168 14.5 80.5 12.60 2.36 0.00 51 1002.4
20260504202046 15 149 9.7 80.5 12.60 2.26 0.00 51 1002.4
20260504201646 16 190 9.7 80.5 12.60 2.21 0.00 51 1002.4
20260504201246 16 139 8.0 80.5 12.60 2.18 0.00 50 1002.4
20260504200846 15 172 6.4 80.5 12.60 2.24 0.00 50 1002.4
20260504200446 16 173 6.4 80.5 12.60 2.26 0.00 50 1002.3
20260504200046 17 177 9.7 80.5 12.60 2.31 0.00 50 1002.3
20260504195646 16 177 6.4 80.5 12.60 2.29 0.00 50 1002.3
20260504195246 17 172 8.0 80.5 12.60 2.34 0.00 49 1002.3
20260504194846 17 173 11.3 80.5 12.60 2.36 0.00 49 1002.3
20260504194046 17 173 11.3 80.5 12.60 2.39 0.00 48 1002.3
20260504193646 17 172 11.3 80.5 12.60 2.39 0.00 48 1002.4
20260504193246 17 173 9.7 80.5 12.60 2.31 0.00 48 1002.3
20260504192446 17 173 6.4 80.5 12.60 2.29 0.00 47 1002.4
20260504192046 17 173 6.4 80.5 12.60 2.26 0.00 47 1002.3
20260504191646 17 156 4.8 80.5 12.60 2.29 0.00 47 1002.4
20260504191246 17 161 6.4 80.5 12.60 2.31 0.00 47 1002.3
20260504190846 17 173 6.4 80.5 12.60 2.39 0.00 46 1002.3
20260504190446 17 172 9.7 80.5 12.60 2.41 0.00 46 1002.3
20260504190046 17 166 8.0 80.5 12.60 2.39 0.00 45 1002.3
20260504185646 17 172 8.0 80.5 12.60 2.39 0.00 45 1002.3
20260504185246 17 155 6.4 80.5 12.60 2.34 0.00 45 1002.3
20260504184846 17 145 6.4 80.5 12.60 2.39 0.00 44 1002.2
20260504184446 17 162 6.4 80.5 12.60 2.39 0.00 44 1002.1
20260504184046 17 172 4.8 80.5 12.60 2.44 0.00 44 1002.1
20260504183646 18 179 11.3 80.5 12.60 2.54 0.00 44 1002.1
20260504183246 18 179 9.7 80.5 12.60 2.57 0.00 44 1002.1
20260504182846 18 179 11.3 80.5 12.60 2.57 0.00 43 1002.1
20260504182446 18 183 9.7 80.5 12.60 2.59 0.00 43 1002.1
20260504182046 18 184 11.3 80.5 12.60 2.59 0.00 43 1002.0
20260504181646 18 189 8.0 80.5 12.60 2.59 0.00 42 1002.0
20260504181246 18 184 9.7 80.5 12.60 2.59 0.00 42 1001.9
20260504180846 18 194 9.7 80.5 12.60 2.62 0.00 41 1001.9
20260504180446 20 201 11.3 80.5 12.60 2.64 0.00 41 1001.9
20260504180046 20 211 11.3 80.5 12.60 2.67 0.00 41 1001.8
20260504175646 20 211 11.3 80.5 12.60 2.69 0.00 40 1001.8
20260504175246 20 217 11.3 80.5 12.60 2.72 0.00 40 1001.8
20260504174846 20 217 11.3 80.5 12.70 2.72 0.00 39 1001.8
20260504174446 20 224 9.7 80.5 12.70 2.77 0.00 39 1001.8
20260504174046 21 222 9.7 80.5 12.80 2.77 0.00 38 1001.8
20260504173646 21 217 8.0 80.5 12.80 2.77 0.00 38 1001.8
20260504173246 22 228 11.3 80.5 12.90 2.82 0.00 38 1001.8
20260504172846 22 224 9.7 80.5 13.00 2.79 0.00 37 1001.8
20260504172446 22 224 8.0 80.5 13.11 2.82 0.00 37 1001.8
20260504172046 21 230 9.7 80.5 13.11 2.82 0.00 37 1001.7
20260504171646 22 228 8.0 80.5 13.31 2.90 0.00 36 1001.7
20260504171246 22 224 8.0 80.5 13.31 2.97 0.00 36 1001.7
20260504170846 22 230 9.7 80.5 13.41 3.00 0.00 35 1001.7
20260504170446 22 228 8.0 80.5 13.49 3.12 0.00 35 1001.6
20260504160446 27 217 9.7 80.5 13.79 3.53 0.00 32 1001.8
20260504150446 27 235 16.1 80.5 13.79 3.61 0.00 29 1002.0
20260504141246 28 190 19.3 80.5 13.79 3.86 0.00 28 1002.3
20260504140845 27 179 32.2 80.5 13.79 3.91 0.00 29 1002.3
20260504140445 30 189 16.1 80.5 13.79 4.09 0.00 29 1002.4
20260504130445 28 151 24.1 80.5 13.79 3.96 0.00 31 1002.9
20260504110445 30 155 17.7 80.5 13.79 3.89 0.00 43 1004.0
20260504100445 27 172 25.7 80.5 13.79 3.63 0.00 44 1004.8
20260504081645 26 145 9.7 80.5 13.79 3.45 0.00 42 1005.7
20260504081245 26 196 14.5 80.5 13.79 3.45 0.00 42 1005.7
20260504080845 25 168 17.7 80.5 13.79 3.40 0.00 42 1005.7
20260504080445 25 183 12.9 80.5 13.79 3.38 0.00 43 1005.7